Miscellaneous Local Product
Issued by NWS Hastings, NE

Home | Current Version | Previous Version | Graphics & Text | Print | Product List | Glossary On
Versions: 1 2 3 4 5 6 7 8 9 10 11 12 13 14 15 16 17 18 19 20 21 22 23 24 25 26 27 28 29 30 31 32 33 34 35 36 37 38 39 40 41 42 43 44 45 46 47 48 49 50
000
AXUS43 KGID 151702
MISGRI

GID CWA HOURLY WEATHER ROUNDUP
NATIONAL WEATHER SERVICE HASTINGS NE
1200 PM CDT MON SEP 15 2014

NOTE: "FAIR" INDICATES FEW OR NO CLOUDS BELOW 12,000 FEET WITH NO
SIGNIFICANT WEATHER AND/OR OBSTRUCTIONS TO VISIBILITY.

...SOUTH CENTRAL NEBRASKA...

CITY           SKY/WX    TMP DP  RH WIND       PRES   REMARKS
GRAND ISLAND   SUNNY     62  44  51 N17G24    30.27R
HASTINGS       SUNNY     61  47  59 N17G23    30.26R
KEARNEY        MOSUNNY   61  46  59 N14G21    30.28S
ORD            SUNNY     60  42  51 NE14G20   30.28R
YORK           SUNNY     59  50  72 NE15G23   30.25R
AURORA         MOSUNNY   61  46  58 N10G17    30.25S
LEXINGTON      SUNNY     60  47  61 NE8G17    30.30R
HOLDREGE       SUNNY     60  46  60 N16       30.28R
HEBRON         CLOUDY    59  48  67 N14       30.23R

...NEBRASKA PANHANDLE...

CITY           SKY/WX    TMP DP  RH WIND       PRES   REMARKS
CHADRON        SUNNY     57  42  57 S7        30.31S
ALLIANCE       SUNNY     55  41  59 S7        30.32F
SCOTTSBLUFF    SUNNY     56  44  64 SE6       30.33F
SIDNEY         SUNNY     56  43  61 VRB3      30.35S

...WESTERN AND NORTH CENTRAL NEBRASKA...

CITY           SKY/WX    TMP DP  RH WIND       PRES   REMARKS
VALENTINE      SUNNY     59  35  40 NE7       30.32R
AINSWORTH      SUNNY     56  39  51 N9        30.31F
ONEILL         SUNNY     58  41  52 N17       30.30S
BROKEN BOW     SUNNY     60  40  47 NE10G20   30.29R
IMPERIAL       SUNNY     58  41  53 E8G16     30.33S
NORTH PLATTE   SUNNY     60  40  47 NE13      30.31S
MCCOOK         MOSUNNY   61  47  59 NE17      30.31R

...EASTERN NEBRASKA...

CITY           SKY/WX    TMP DP  RH WIND       PRES   REMARKS
NORFOLK        MOSUNNY   58  44  60 N21       30.26R
SO SIOUX CITY  CLOUDY    58  46  64 N13G22    30.26R
TEKAMAH        MOSUNNY   62  47  57 N20       30.23R
ALBION         MOSUNNY   58  44  58 N12G18    30.27S
OMAHA EPPLEY   PTSUNNY   61  49  64 N14G23    30.21R
OFFUTT AFB     MOSUNNY   61  55  82 N13       30.20R
MILLARD        PTSUNNY   60  51  71 N9        30.21
LINCOLN        PTSUNNY   64  51  62 N17       30.23R
NEBRASKA CITY  CLOUDY    59  48  68 N15G21    30.19R
BEATRICE       CLOUDY    62  51  66 N13G22    30.20R
FALLS CITY     CLOUDY    62  58  86 N17G24    30.14R

...NORTHERN KANSAS...

CITY           SKY/WX    TMP DP  RH WIND       PRES   REMARKS
GOODLAND       CLOUDY    52  49  89 NE14      30.33R
HILL CITY      CLOUDY    61  50  67 NE20      30.27R
NORTON         PTSUNNY   61  45  55 N15G21    30.27R
PHILLIPSBURG   MOSUNNY   63  48  59 N14G23    30.25F
SMITH CENTER   PTSUNNY   61  48  63 N16G23    30.25R
BELOIT         MOSUNNY   64  54  68 N17G24    30.19R
HAYS           CLOUDY    63  54  72 N22       30.22R
RUSSELL        CLOUDY    61  54  77 N20       30.19R
CONCORDIA      PTSUNNY   65  55  70 N14G21    30.19R
SALINA         CLOUDY    68  61  78 N14       30.15R
TOPEKA         CLOUDY    71  65  81 NW10      30.11R



USA.gov is the U.S. government's official web portal to all federal, state and local government web resources and services.